Regional Weather Roundup
Issued by NWS Portland, ME

Home | Current Version | Previous Version | Text Only | Print | Product List | Glossary On
Versions: 1 2 3 4 5 6 7 8 9 10 11 12 13 14 15 16 17 18 19 20 21 22 23 24 25 26 27 28 29 30 31 32 33 34 35 36 37 38 39 40 41 42 43 44 45 46 47 48 49 50
000
ASUS41 KGYX 270705
RWRGYX
WEATHER ROUNDUP FOR MAINE AND NEW HAMPSHIRE
NATIONAL WEATHER SERVICE GRAY ME
300 AM EDT MON MAR 27 2017

MEZ002-005-006-010-012-015-018-020-021-024-026-027-029-270800-
MAINE

CITY           SKY/WX    TMP DP  RH WIND       PRES   REMARKS
PORTLAND       CLOUDY    34  29  82 SE5       30.37F
SANFORD        CLOUDY    32  30  92 CALM      30.35F
BAR HARBOR     CLOUDY    31  23  72 CALM      30.43S
WISCASSET      CLOUDY    33  30  88 CALM      30.40F
ROCKLAND       FLURRIES  31  29  92 NE3       30.40F
FRYEBURG       CLOUDY    31  28  89 CALM      30.34F
LEWISTONAUBURN CLOUDY    31  29  92 SE6       30.36F
AUGUSTA        FRZ RAIN  30  27  88 SE7       30.38F
WATERVILLE     LGT SNOW  31  29  92 CALM      30.35F FOG
BANGOR         FLURRIES  31  22  69 SW5       30.41F
GREENVILLE       N/A     24  23  96 VRB5      30.27F
MILLINOCKET    LGT SNOW  28  21  75 VRB5      30.40S
HOULTON        CLOUDY    28   2  32 SE7       30.38S
PRESQUE ISLE   NOT AVBL
FRENCHVILLE    CLOUDY    21  -6  30 E7        30.34F
CARIBOU        PTCLDY    22   5  48 E5        30.37F
$$

NHZ002-005-008-009-011-012-014-270800-
NEW HAMPSHIRE

CITY           SKY/WX    TMP DP  RH WIND       PRES   REMARKS
PORTSMOUTH     CLOUDY    36  29  74 SE8       30.33F
ROCHESTER      CLOUDY    32  29  88 NW3       30.33F
NASHUA         CLOUDY    34  31  88 CALM      30.33F
MANCHESTER     CLOUDY    35  28  75 CALM      30.32F
CONCORD        CLOUDY    33  29  85 CALM      30.32F
LACONIA        CLOUDY    31  29  92 CALM      30.32F
PLYMOUTH       CLOUDY    31  29  92 E3        30.32F
BERLIN         CLOUDY    32  27  81 S5        30.22F
WHITEFIELD     CLOUDY    33  30  88 CALM      30.21F
JAFFREY        CLOUDY    32  28  85 VRB3      30.27F FOG
KEENE          CLOUDY    34  29  82 S5        30.29F
LEBANON        CLOUDY    34  28  79 E5        30.26F
MT WASHINGTON  FOG       30  30 100 SW51G56     N/A  VSB 0   WCI  12
$$

VTZ005-007-008-270800-
VERMONT

CITY           SKY/WX    TMP DP  RH WIND       PRES   REMARKS
ST JOHNSBURY     N/A     32  27  81 MISG      30.22F
MONTPELIER     CLOUDY    31  26  82 S9        30.23F
BURLINGTON     CLOUDY    37  29  72 S10G22    30.14F
$$

MAZ007-012-024-CTZ003-RIZ002-NYZ038-NYZ072-270800-
SOUTHERN NEW ENGLAND AND NY

CITY           SKY/WX    TMP DP  RH WIND       PRES   REMARKS
BOSTON         CLOUDY    37  32  82 E10       30.34F
WORCESTER      CLOUDY    32  27  81 E6        30.27F
NANTUCKET      CLOUDY    39  36  89 E15       30.30F FOG
PROVIDENCE     CLOUDY    36  31  82 E5        30.32F
HARTFORD       DRIZZLE   35  31  85 E5        30.29F
ALBANY         CLOUDY    36  30  79 S13       30.20F
NEW YORK CITY  DRIZZLE   39  37  92 NE10      30.24F FOG
$$

ANZ081-ANZ082-ANZ150-NHZ014-MEZ023>029-270800-
COASTAL MARINE OBSERVATIONS

STATION/POSITION TIME  TEMP    WIND        PRES    WAVE
                       AIR SEA DIR/SP/G            HT/PER
                 (UTC) (F)     (DEG/KT/KT) (MB)    (FT/S)
MOUNT DESERT ROC 0700   34                 1030.4F
MATINICUS ROCK   0600   34     170/  7/  7 1029.4F
ISLE OF SHOALS   0600   37     130/ 13/ 14 1027.9F
JEFFREYS LEDGE   0606      41                N/A     3/ 6
CASHES LEDGE BUO 0550   35 39              1029.8    2/ 8
GEORGES BANK BUO 0550   43 42              1029.3    4/ 6
$$

.............KEY..............
   WCI - WIND CHILL
   TC  - TEMPERATURE IN CELSIUS
   VSB - VISIBILITY IN MILES
   HX  - HEAT INDEX
   FAIR- INDICATES FEW OR NO CLOUDS BELOW 12,000 FT, WITH NO
         SIGNIFICANT WEATHER AND/OR OBSTRUCTIONS TO VISIBILITY.





USA.gov is the U.S. government's official web portal to all federal, state and local government web resources and services.